Theta_e
315 315 314 312 311 310 307 306 307 307 306 306 306 305 305 305 305 305 304 301 297 294 293 294 295 296 296 296 296 295 295 295 295 295 295 295 294 293 291 291 291 290 290 290 290 290 290 290 290 290 290 291
316 315 313 312 311 310 307 306 307 307 306 306 305 305 305 305 305 305 303 298 293 293 293 293 294 295 295 295 295 294 294 294 293 293 293 293 292 291 291 290 290 290 290 290 290 290 290 290 289 289 290 291
316 314 313 312 311 309 307 306 307 306 306 306 305 305 305 304 305 304 300 295 293 292 293 292 292 294 295 295 294 293 293 292 291 291 291 291 291 291 290 290 290 290 289 289 289 289 289 289 289 289 290 290
316 314 313 313 311 309 307 306 307 306 306 305 305 305 305 304 304 303 298 293 292 292 292 292 292 292 293 293 293 292 291 291 291 290 290 290 290 290 290 290 290 290 289 289 289 289 289 289 289 289 289 290
316 314 313 312 311 308 307 307 306 306 306 305 305 304 304 304 304 300 295 293 292 292 292 292 292 292 292 292 292 291 291 291 290 290 290 290 290 289 289 290 290 289 289 289 288 288 289 289 289 289 289 289
315 314 313 311 310 308 306 306 306 306 305 305 305 304 304 304 304 299 294 293 292 292 292 292 292 292 292 291 291 291 291 290 290 290 289 289 289 289 289 289 289 289 289 288 288 288 288 288 288 288 288 288
315 313 312 311 310 308 306 306 306 306 305 305 304 304 304 304 303 297 293 293 292 292 292 292 292 292 292 291 291 291 291 290 290 290 289 289 289 289 289 289 289 289 289 288 288 288 288 288 288 288 288 288
314 313 311 310 309 307 306 306 306 306 305 305 304 304 304 304 300 295 293 293 292 292 292 292 291 291 291 291 291 290 290 290 290 290 289 289 289 289 289 289 289 288 288 288 288 288 288 288 288 288 288 288
314 313 310 309 309 307 306 306 306 306 305 305 304 304 304 303 298 293 293 292 292 292 291 291 291 291 291 290 290 290 290 290 290 290 289 289 289 289 288 288 288 288 288 288 288 288 288 288 288 288 288 288
314 312 310 309 308 307 307 306 306 306 305 304 304 304 304 301 296 293 293 292 292 292 291 291 291 291 290 290 290 290 290 290 290 289 289 289 288 288 288 288 288 288 288 288 288 288 288 288 288 288 288 288
314 311 309 309 308 306 307 306 306 306 305 304 304 303 303 300 295 293 293 292 292 292 291 291 290 290 290 290 290 290 289 290 289 289 289 289 288 288 288 288 288 288 288 288 288 288 287 287 288 288 288 288
313 309 308 309 307 307 306 306 306 306 305 304 304 304 303 299 294 293 293 293 292 292 291 290 290 290 290 290 289 289 289 289 289 289 289 289 288 288 288 288 288 288 287 287 287 287 287 287 287 288 288 288
312 308 308 308 306 307 306 306 306 305 305 304 303 304 302 298 294 293 293 293 292 291 291 290 290 290 290 289 289 289 289 289 289 289 289 288 288 288 288 288 287 287 287 287 287 287 287 287 287 287 287 287
311 308 308 308 306 306 306 306 306 305 305 304 304 304 302 297 294 293 293 292 292 291 291 290 290 290 290 289 289 289 289 289 289 289 289 288 288 288 288 288 287 287 287 287 287 287 287 287 287 287 287 287
312 309 308 307 306 306 306 306 306 305 305 304 304 303 301 297 294 293 293 292 292 291 291 290 290 290 289 289 289 289 289 289 289 289 288 288 288 288 288 288 287 287 287 287 287 287 287 287 287 287 287 287
312 310 308 307 307 306 306 306 305 305 305 304 303 303 301 296 293 293 293 292 291 291 290 290 290 290 289 289 289 289 289 289 289 288 288 288 288 288 288 288 287 287 287 287 287 287 287 287 287 287 287 286
313 311 308 306 307 306 306 306 305 305 305 304 303 303 300 296 293 293 292 292 291 291 290 290 290 290 290 289 289 289 289 289 288 288 288 288 288 288 288 288 288 287 287 287 287 287 287 287 287 287 286 286
313 312 309 306 306 306 305 305 305 305 305 304 303 303 300 295 293 292 292 292 291 291 290 290 290 290 290 289 289 289 289 289 288 288 288 288 288 288 288 288 288 287 288 288 287 287 287 287 287 287 287 287
313 313 310 306 306 306 305 305 305 305 305 304 303 303 300 295 293 292 292 292 291 291 290 290 290 290 290 289 289 289 289 288 288 288 288 288 288 288 288 288 288 287 288 288 288 287 287 287 287 287 287 287
313 313 310 306 306 306 305 305 305 305 305 304 303 302 299 295 293 292 292 292 291 291 290 290 290 290 290 290 289 289 289 288 288 288 288 288 288 288 288 287 287 287 287 287 287 287 287 287 287 287 287 287
312 313 311 307 306 306 305 305 305 305 304 304 303 302 299 295 293 292 292 292 291 291 290 290 290 290 290 290 289 289 289 288 288 287 287 288 288 287 287 287 287 287 287 287 287 287 287 287 287 287 287 287
312 313 312 308 306 306 305 305 305 304 304 304 303 302 299 295 293 292 292 292 291 291 290 290 290 290 290 289 289 289 288 288 288 287 287 288 288 287 287 287 287 287 287 287 287 287 287 287 287 287 287 287
311 311 312 309 306 306 305 305 305 304 304 304 303 302 299 295 293 292 292 292 291 291 290 290 290 290 290 289 289 289 288 288 288 288 288 288 288 288 287 287 287 287 286 286 286 286 287 287 287 287 287 287
311 311 311 309 307 306 306 305 305 305 304 303 303 302 299 296 293 292 292 292 291 291 290 290 290 290 289 289 289 289 288 288 288 288 288 288 288 287 287 287 286 286 286 286 286 286 287 287 287 286 286 286
312 312 312 311 309 307 306 305 305 305 304 304 303 302 299 296 293 292 292 291 291 291 290 290 290 289 289 289 289 288 288 288 288 288 288 288 287 287 287 287 286 286 286 286 286 287 287 286 286 286 286 286
313 314 313 313 311 309 306 305 305 305 304 303 303 302 300 296 293 292 291 291 291 290 290 290 290 289 289 289 289 288 288 288 288 288 288 288 287 287 287 287 287 287 287 287 287 286 286 286 286 286 286 286
313 313 312 312 312 310 307 305 304 304 304 303 302 301 299 296 293 292 291 291 291 290 290 290 290 289 289 289 289 288 288 288 288 288 288 287 287 287 287 287 287 287 287 287 287 286 286 286 286 286 286 286
311 311 310 310 311 309 306 304 304 303 303 302 302 301 299 297 294 292 291 291 291 290 290 290 290 289 289 289 289 288 288 288 288 288 287 287 287 287 287 287 287 287 287 287 287 286 287 286 286 286 286 286
311 310 310 310 310 308 305 303 303 303 303 303 302 301 300 297 294 292 291 291 291 290 290 290 289 289 289 289 289 288 288 288 287 287 287 287 287 287 287 287 287 287 287 287 286 286 287 287 286 286 285 286
311 310 310 310 310 310 307 305 304 305 305 304 303 302 300 297 295 292 291 291 291 290 290 289 289 289 289 288 288 288 288 287 287 287 287 287 287 287 287 287 287 287 287 287 287 286 286 286 286 286 285 285
311 311 311 311 311 311 310 308 306 305 304 304 303 302 300 298 295 292 291 290 290 290 290 289 289 289 289 288 288 288 288 287 287 287 287 287 287 287 287 287 286 287 287 287 287 286 286 286 286 286 286 285
Wind_Speed
12 9 7 7 7 7 8 7 6 4 2 1 2 4 6 7 8 10 11 11 8 5 3 4 7 8 9 10 11 11 11 11 12 12 12 12 12 12 11 12 13 14 14 13 14 14 15 15 14 12 11 14
11 9 8 7 7 8 8 7 6 4 2 2 3 6 7 9 10 11 11 10 6 3 2 4 6 8 9 10 10 10 10 10 10 10 11 11 11 11 12 13 13 14 14 14 14 14 15 15 15 13 12 13
10 9 8 8 8 9 9 8 6 4 2 3 5 7 8 9 10 12 11 8 4 2 2 4 6 7 9 9 10 10 9 8 8 9 9 10 10 10 12 13 13 14 15 15 15 14 14 15 15 14 13 13
11 10 9 9 10 10 9 8 6 4 3 4 6 8 9 10 10 11 9 5 3 0 1 3 6 7 8 8 9 9 8 8 8 9 9 10 11 11 11 12 13 15 15 15 15 14 14 15 15 15 15 14
14 11 10 10 11 11 10 9 6 4 3 4 6 8 8 10 11 11 8 4 2 0 2 3 5 7 7 8 8 8 8 8 9 10 10 10 12 12 12 11 12 15 16 16 15 15 15 15 15 16 16 15
15 12 11 11 12 11 11 9 6 4 3 5 6 8 8 10 12 11 7 4 2 0 2 4 4 5 6 7 7 7 8 9 10 11 11 11 12 13 13 13 13 14 15 16 16 15 15 15 16 16 16 16
16 13 12 13 13 12 11 9 6 4 3 5 7 8 9 10 11 9 5 3 1 1 2 3 4 4 5 6 6 7 8 9 10 11 12 12 12 13 14 14 14 14 15 16 16 15 15 15 16 16 17 17
18 14 13 14 14 13 12 9 6 4 4 5 7 7 9 10 10 7 4 2 0 2 2 3 4 5 5 6 7 7 8 9 10 11 12 12 13 14 14 14 14 14 15 15 15 15 15 16 16 16 17 17
18 15 14 15 14 14 13 9 7 5 4 5 7 7 8 9 8 5 2 1 1 2 3 4 4 5 6 6 7 8 8 9 10 11 12 13 14 14 14 14 14 14 14 15 15 15 15 16 16 16 16 16
18 15 15 16 15 14 13 9 7 5 5 5 6 6 8 8 7 4 2 1 2 2 3 4 5 5 7 7 7 8 8 9 10 12 13 14 15 15 14 14 14 14 14 14 14 15 15 16 15 15 15 15
18 16 17 17 16 15 13 10 7 5 5 6 6 6 7 7 6 3 1 1 2 3 4 4 5 6 7 8 8 9 9 9 11 12 13 14 15 15 14 14 14 14 14 14 14 15 15 15 15 15 14 14
18 17 18 18 17 16 13 10 8 6 5 6 6 6 6 6 5 3 2 2 2 3 4 5 6 7 8 8 8 9 9 10 11 12 13 14 14 14 14 13 13 13 13 14 14 14 14 14 14 14 13 13
18 18 19 19 18 16 14 11 8 7 6 6 6 5 6 6 4 3 2 2 3 4 5 6 7 7 8 9 9 10 11 11 12 13 14 14 14 14 14 13 13 12 13 13 14 13 13 13 13 13 13 13
18 18 20 20 18 17 15 12 9 7 6 6 6 5 5 5 3 3 3 3 4 5 6 7 8 8 9 10 10 11 11 13 13 13 14 13 13 13 13 13 13 12 12 12 13 12 12 12 12 12 12 12
19 18 20 21 19 17 15 12 10 8 7 7 6 5 5 4 3 4 4 4 5 6 7 7 8 9 9 10 11 11 12 13 13 13 13 13 12 12 12 13 13 12 12 11 12 11 11 12 11 11 11 11
20 19 20 21 19 18 16 13 11 9 7 7 6 5 4 4 4 5 5 5 6 7 8 8 9 9 10 11 11 12 12 13 13 13 13 13 12 12 12 12 12 12 11 11 11 10 10 10 10 10 10 10
22 21 21 22 20 19 17 14 12 10 8 8 6 5 4 4 5 6 6 6 7 8 9 9 10 10 11 12 12 12 13 13 13 13 13 12 12 12 12 11 12 11 11 10 10 9 9 9 9 9 9 9
24 22 22 23 21 20 18 16 13 11 9 8 7 6 5 5 6 7 7 7 8 9 10 10 11 11 12 12 12 13 13 13 13 13 12 12 12 11 11 10 11 10 10 9 8 8 8 7 8 8 7 7
25 23 23 23 22 21 19 17 15 12 10 9 7 7 6 6 8 8 8 8 9 10 10 11 12 12 13 13 13 13 13 13 13 13 12 12 11 11 11 10 10 9 8 7 7 6 6 6 6 6 5 6
27 24 23 23 22 22 20 18 16 13 11 10 9 8 7 7 9 10 10 9 10 11 11 12 13 13 13 13 14 14 14 14 14 13 13 13 12 11 11 11 10 9 7 6 5 4 4 4 4 4 4 4
28 26 23 23 23 23 21 19 17 15 13 11 10 9 8 9 10 11 11 11 11 12 13 13 14 14 14 14 14 14 14 14 14 14 13 13 14 12 11 11 10 8 7 6 4 3 3 2 2 2 3 3
30 27 25 24 25 24 23 21 19 17 15 13 11 10 10 10 11 12 12 12 12 13 14 15 15 15 15 15 15 15 15 15 15 15 15 14 14 14 12 11 10 8 7 5 4 3 2 1 1 1 1 3
32 30 27 25 26 26 25 24 21 19 17 15 13 12 11 11 12 14 13 13 13 14 15 16 16 16 16 15 15 15 15 16 16 16 16 15 14 14 13 12 10 8 7 6 4 4 3 1 1 1 1 2
35 33 30 27 28 28 28 26 24 21 19 16 15 13 13 13 14 15 15 14 14 15 16 17 18 17 17 16 16 16 16 16 16 16 16 15 14 14 13 12 10 9 8 7 6 5 4 2 1 2 1 1
37 35 32 29 29 30 29 28 26 23 21 18 16 15 15 14 15 16 16 15 15 16 17 18 19 18 18 17 17 17 17 17 17 17 16 16 15 14 13 12 11 10 9 8 7 5 4 3 1 1 2 1
38 35 31 28 28 29 30 29 27 24 21 20 18 17 16 16 16 17 17 16 17 17 18 19 20 19 18 18 18 18 18 18 17 17 17 16 15 14 13 12 10 10 9 9 8 7 5 3 2 1 2 2
39 35 32 28 27 28 30 29 27 25 23 21 20 19 18 18 18 18 18 18 18 18 19 20 20 20 19 18 18 18 19 18 18 17 16 15 14 13 12 12 11 10 9 9 9 8 6 4 2 1 3 3
40 37 34 30 28 28 30 30 29 27 25 24 22 21 21 20 20 20 20 19 19 19 20 20 21 20 19 19 19 19 19 19 18 17 16 15 14 13 12 11 11 10 9 9 9 9 7 4 2 1 2 3
42 40 37 34 32 32 33 33 32 31 30 28 25 24 23 21 21 21 21 21 21 20 20 21 21 21 20 19 20 20 20 20 19 18 17 16 15 14 12 11 10 10 9 8 8 8 6 4 2 1 2 3
43 42 40 38 36 35 36 36 36 34 31 29 26 24 24 23 23 23 23 23 22 22 22 22 22 22 21 20 20 21 21 21 20 19 17 16 15 14 13 12 10 10 9 8 7 6 5 3 1 0 2 4
44 43 41 40 37 35 36 37 36 34 31 28 26 25 24 24 24 24 24 24 24 23 23 23 24 23 22 21 21 22 22 22 21 19 18 17 16 15 13 12 11 10 9 8 7 5 4 3 0 1 2 4
Wind_Direction
192 202 203 194 188 187 188 179 177 184 199 262 317 328 337 341 343 342 341 341 338 343 19 72 85 87 91 96 98 99 96 96 96 94 93 91 93 96 99 99 98 98 100 101 102 103 104 103 101 104 113 119
204 210 206 201 199 199 197 189 188 199 227 283 321 335 341 340 341 341 340 337 334 348 42 90 100 95 95 99 100 100 98 99 99 98 96 95 99 104 106 104 104 106 105 104 103 105 106 107 105 106 110 112
217 217 210 208 206 204 200 194 198 211 246 300 331 339 341 339 339 338 336 332 327 348 61 103 114 108 101 101 101 103 106 108 106 103 100 100 102 106 111 113 113 111 108 106 104 105 106 106 105 100 96 97
227 222 214 213 208 205 201 199 206 219 269 314 337 339 337 337 336 336 335 331 319 319 113 120 125 124 115 110 110 114 119 120 113 108 106 107 106 106 111 117 119 115 110 108 105 103 101 100 98 92 85 83
230 226 220 216 207 203 203 203 212 226 282 318 335 335 335 337 337 338 338 338 331 90 138 135 129 132 130 127 127 127 126 122 118 117 118 118 118 115 114 115 116 115 113 109 105 101 97 94 90 86 81 76
232 229 224 215 206 203 204 206 215 233 284 316 330 332 337 340 339 339 337 342 347 98 136 138 129 132 133 133 132 131 129 126 127 127 127 127 125 123 120 119 117 114 112 108 105 99 95 91 87 84 79 73
230 227 222 211 203 202 205 210 220 240 286 315 327 332 339 340 337 335 333 338 352 128 126 132 128 129 126 129 126 125 128 132 135 133 131 129 126 126 125 124 120 116 112 107 103 98 94 90 86 82 78 73
228 225 220 208 202 203 206 211 222 246 289 310 325 332 338 337 334 331 327 331 174 139 131 129 125 128 124 128 126 127 133 137 137 134 133 131 131 131 127 125 119 115 111 106 102 97 93 88 85 82 78 75
227 226 219 205 201 204 206 212 222 247 285 306 323 329 333 334 332 328 318 284 181 150 142 138 132 134 131 134 135 137 143 142 139 136 137 136 136 132 127 124 117 113 108 103 100 96 91 87 84 81 78 75
226 227 214 203 202 205 208 214 223 248 282 303 319 321 330 333 333 328 301 218 189 165 153 146 142 142 138 141 143 144 147 146 142 142 144 142 138 132 127 123 116 112 106 103 100 96 92 87 83 80 78 76
225 222 208 202 203 205 210 215 222 247 277 301 311 316 330 333 333 329 286 221 197 178 166 154 151 150 145 146 148 147 149 149 147 149 149 144 139 133 129 123 117 113 108 105 101 97 93 88 85 81 80 77
222 216 204 201 203 205 212 215 222 247 271 296 303 314 330 333 332 317 274 224 204 188 175 164 160 158 153 151 153 153 152 154 153 154 150 144 139 133 128 122 117 114 110 107 101 98 94 91 89 86 82 78
219 210 202 201 203 205 213 216 221 245 267 291 296 312 327 329 324 293 257 226 207 194 182 171 167 165 159 157 159 159 156 158 158 155 149 144 140 133 130 124 118 115 110 107 102 99 97 96 93 88 82 75
214 207 202 202 202 205 214 216 222 242 262 284 290 307 322 320 304 262 238 223 209 198 186 175 174 171 166 164 165 164 160 160 160 155 149 145 142 136 134 128 122 117 112 109 105 104 102 98 94 87 81 72
212 207 205 203 202 207 214 215 223 239 256 278 283 297 311 307 275 241 228 217 208 201 188 180 179 177 173 171 169 166 165 163 160 156 151 147 143 139 136 132 127 122 117 115 111 110 107 100 93 85 77 68
212 211 208 205 203 208 214 216 223 235 252 269 275 287 294 286 254 232 224 213 206 200 189 185 184 182 177 174 173 169 168 166 161 158 153 149 145 141 139 136 132 129 125 122 119 116 108 100 92 84 76 67
214 214 211 207 205 209 213 216 222 232 248 262 266 273 275 263 240 226 218 209 206 199 190 189 188 186 181 176 174 171 170 168 162 159 155 151 149 145 143 140 137 135 134 131 126 121 111 103 94 84 76 67
216 217 214 208 206 210 213 216 222 229 242 255 259 258 259 247 230 221 214 207 204 199 192 192 190 189 185 178 175 172 171 168 164 161 158 154 152 148 144 142 141 139 141 138 132 126 115 105 96 87 80 69
217 218 215 210 208 210 213 217 221 228 238 249 251 248 246 236 225 217 211 206 202 199 195 194 193 191 187 181 176 175 173 170 166 163 160 157 155 151 146 144 144 144 145 140 132 127 116 109 98 90 83 71
218 220 215 210 210 211 214 218 221 227 235 243 244 241 238 228 222 215 210 207 201 200 199 197 196 194 190 183 178 176 176 172 168 166 165 162 158 155 151 148 148 146 145 139 129 122 111 107 100 91 80 68
219 222 217 211 210 211 214 218 222 226 232 238 238 236 233 225 220 216 211 208 202 199 201 200 198 196 192 186 181 179 178 175 171 170 172 170 162 159 158 154 152 150 147 141 133 124 111 106 100 96 80 60
219 222 219 213 211 213 215 218 222 225 230 234 234 232 229 223 219 216 212 208 204 200 200 201 198 196 194 189 184 181 181 179 177 176 177 178 170 165 164 161 159 156 153 151 147 141 126 115 101 100 77 48
218 222 221 214 211 213 214 217 221 223 228 230 230 229 226 223 219 217 214 208 205 202 201 202 199 196 195 191 186 184 184 183 184 182 180 181 177 171 168 167 165 163 164 167 171 173 165 134 82 57 29 27
217 221 220 215 213 213 214 217 220 222 226 228 228 227 224 222 219 217 214 209 206 203 202 202 200 197 194 193 188 186 187 187 187 187 183 181 180 177 173 170 171 173 177 181 186 193 196 196 137 44 16 357
218 220 220 216 214 215 216 218 220 222 225 226 226 224 223 221 218 217 214 211 207 205 204 203 201 198 196 194 190 187 188 189 189 187 185 183 181 179 177 176 178 181 186 192 196 201 201 204 210 24 15 359
221 223 224 223 220 218 218 219 222 224 226 227 225 223 222 219 218 217 214 211 207 206 206 205 203 201 198 196 193 189 188 190 191 189 187 185 184 182 180 181 185 188 191 199 204 208 210 217 226 265 1 4
222 226 227 227 227 224 221 221 221 223 225 226 224 223 221 218 217 216 214 212 208 207 207 207 206 204 201 199 196 192 189 189 190 190 189 187 186 187 185 184 186 191 193 196 202 209 214 225 238 260 357 360
221 225 227 228 228 226 223 222 221 221 222 223 222 221 220 218 216 214 214 212 209 207 208 208 208 206 204 202 199 195 190 189 189 189 190 190 188 188 191 191 188 189 189 189 198 209 213 217 232 250 351 351
220 222 225 227 226 222 219 219 220 220 221 222 221 221 220 218 216 214 213 212 209 207 207 209 209 207 205 205 203 197 191 188 189 190 191 193 192 190 192 197 199 194 188 185 191 202 210 217 229 244 358 356
221 223 226 228 227 223 219 218 220 222 224 226 225 223 222 219 216 214 213 212 210 207 207 207 209 208 205 205 206 200 193 191 192 192 192 194 195 194 193 196 204 203 194 188 186 188 196 205 215 39 17 11
223 225 229 233 234 232 228 226 225 224 226 228 228 226 225 222 218 215 213 212 210 207 207 206 207 208 206 204 205 202 197 194 194 194 194 196 196 197 197 195 199 205 201 194 189 188 184 183 137 39 15 10